Location: Boncourt
(49.6160°N, 3.9448°E)
Time: 11:48:18
(UTC+00:00)

Okean-O - Pass Details

Date: 09 February 2023
Orbit: 637 x 638 km, 98.1° (Epoch: 22 March)

Event Time Altitude Azimuth Distance (km) Brightness Sun altitude
Exits shadow 18:29:06 22° 51° (NE) 1,402 3.9 -16.0°
Drops below altitude 10° 18:32:00 10° 11° (N) 2,043 5.1 -16.5°
Sets 18:34:35 0° 357° (N) 2,957 6.1 -16.9°
